Regional Weather Roundup
Issued by NWS

Home | Current Version | Previous Version | Graphics & Text | Print | Product List | Glossary On
Versions: 1 2 3 4 5 6 7 8 9 10 11 12 13 14 15 16 17 18 19 20 21 22 23 24 25 26 27 28 29 30 31 32 33 34 35 36 37 38 39 40 41 42 43 44 45 46 47 48 49 50
000
ASUS43 KLOT 040221
RWRIL

ILLINOIS REGIONAL WEATHER ROUNDUP
NATIONAL WEATHER SERVICE CHICAGO/ROMEOVILLE IL
900 PM CDT THU SEP 03 2015

NOTE: "FAIR" INDICATES FEW OR NO CLOUDS BELOW 12,000 FEET WITH NO
SIGNIFICANT WEATHER AND/OR OBSTRUCTIONS TO VISIBILITY.

* THESE STATIONS ARE NOT UNDER NWS QUALITY CONTROL. THEY ALSO MAY NOT
  REPORT WEATHER SUCH AS PRECIPITATION OR FOG.

ILZ001-002-007-009-015-016-024-040300-
NORTHWEST ILLINOIS

CITY           SKY/WX    TMP DP  RH WIND       PRES   REMARKS
MOLINE         CLEAR     78  72  81 CALM      29.91R HX  80
STERLING*      CLEAR     75  72  88 CALM      29.90R
SAVANNA*       CLEAR     78  74  87 CALM      29.91R FOG     HX  80
$$

ILZ003-004-008-010-011-017-018-040300-
NORTH CENTRAL ILLINOIS

CITY           SKY/WX    TMP DP  RH WIND       PRES   REMARKS
ROCKFORD       MOCLDY    80  73  79 CALM      29.92R HX  84
FREEPORT*      CLEAR     74  71  91 CALM      29.94R
ROCHELLE*      PTCLDY    75  73  95 CALM      29.92R
DE KALB*       PTCLDY    79  73  83 CALM      29.93R HX  82
PERU*          CLEAR     80  67  63 CALM      29.92R HX  82
$$

ILZ005-006-012>014-019>023-040300-
NORTHEAST ILLINOIS

CITY           SKY/WX    TMP DP  RH WIND       PRES   REMARKS
CHICAGO-OHARE  PTCLDY    73  67  81 NE8       29.93S
CHICAGO-MIDWAY PTCLDY    76  67  73 NE10      29.93R
AURORA         MOCLDY    77  72  84 CALM      29.92R
LANSING*       PTCLDY    74  69  87 NE10      29.93R
JOLIET*        MOCLDY    78  72  83 CALM      29.92R HX  80
WAUKEGAN       MOCLDY    69  67  93 N5        29.94R
DUPAGE AIRPORT PTCLDY    74  67  78 E9        29.93R
KANKAKEE*      CLEAR     76  71  85 CALM      29.93R
WHEELING       PTCLDY    72  67  84 N6        29.95R
MORRIS*        CLEAR     80  70  72 CALM      29.91S HX  83
ROMEOVILLE*    CLEAR     78  68  72 N5        29.92R HX  80
NORTHERLY ISL    N/A     71  67  87 N6          N/A
$$

LMZ740>746-040300-
SOUTHERN LAKE MICHIGAN

STATION/POSITION SKY/WX   TEMP    WIND        PRES    VSBY  WAVE
                          AIR SEA DIR/SP/G                  HT/PER
                          (F)     (DEG/KT/KT) (MB)    (MI)  (FT/S)
SOUTHERN BUOY              70 71  360/ 12/ 14 1012.4          1/ 3
WILMETTE HARBOR            64 68  130/  6/ 10   N/A           2/ 2
HARRISON CRIB              72      20/  9/ 10   N/A
BURNHAM HARBOR             71     360/  4/ 10   N/A
CALUMET HARBOR             73     360/  9/ 12   N/A
BURNS HARBOR               74      40/ 16     1012.9R
MICHIGAN CITY              72      20/ 17/ 18   N/A
MICHIGAN CITY 6N           73 74   50/ 12/ 14   N/A           2/ 3
ST. JOSEPH                 72 73   60/ 12/ 12   N/A           2/ 3
$$

ILZ025>027-034>036-040-047-049-050-058-095>099-040300-
WEST-CENTRAL ILLINOIS

CITY           SKY/WX    TMP DP  RH WIND       PRES   REMARKS
QUINCY         CLEAR     82  67  60 S6        29.92R HX  84
GALESBURG*     PTCLDY    74  71  89 CALM      29.93R
MACOMB*        CLEAR     75  69  81 S5        29.94R
JACKSONVILLE*  CLEAR     81  69  68 S3        29.93R HX  84
PITTSFIELD*    CLEAR     78  71  78 S3        29.94R HX  80
$$

ILZ028>032-037-038-041>044-048-051>054-059>061-040300-
CENTRAL ILLINOIS

CITY           SKY/WX    TMP DP  RH WIND       PRES   REMARKS
PONTIAC        CLEAR     75  72  90 CALM      29.94R
BLOOMINGTON    PTCLDY    83  69  62 CALM      29.96R HX  86
DECATUR        CLEAR     79  66  64 S5        29.95R HX  81
PEORIA         CLEAR     81  70  69 CALM      29.93R HX  84
LACON*         CLEAR     76  70  82 CALM      29.92R
LINCOLN*       PTCLDY    82  67  60 CALM      29.92R HX  84
SPRINGFIELD    CLEAR     78  67  68 CALM      29.94R HX  80
TAYLORVILLE    CLEAR     73  68  83 S3        29.95R
$$

ILZ033-039-045-046-055>057-062-063-040300-
EAST-CENTRAL ILLINOIS

CITY           SKY/WX    TMP DP  RH WIND       PRES   REMARKS
CHAMPAIGN      CLEAR     76  69  79 S5        29.95R
RANTOUL*       PTCLDY    82  71  68 SW5       29.94R HX  87
MATTOON        CLEAR     80  67  64 SW6       29.94R HX  82
PARIS*         CLEAR     74  70  85 S5        29.96R
$$

ILZ079-100>102-040300-
SOUTHWEST ILLINOIS

CITY           SKY/WX    TMP DP  RH WIND       PRES   REMARKS
ALTON          PTCLDY    75  70  83 CALM      29.94R
BELLEVILLE     CLEAR     78  75  90 CALM      29.93R HX  81
CAHOKIA*       CLEAR     80  71  74 S3        29.93R HX  84
SPARTA*        CLEAR     79  71  77 SE3       29.97R HX  82
$$

ILZ064>066-069>071-074>076-080>082-084>086-088>090-092>094-040300-
SOUTH-CENTRAL ILLINOIS

CITY           SKY/WX    TMP DP  RH WIND       PRES   REMARKS
CARBONDALE     CLEAR     75  71  87 CALM      29.95R
CAIRO*         CLEAR     73  73 100 CALM      29.94R
EFFINGHAM*     PTCLDY    74  69  83 CALM      29.97R
MARION         CLEAR     75  70  83 CALM      29.96R
MT. VERNON     CLEAR     72  66  83 CALM      29.97R
CENTRALIA*     CLEAR     75  73  92 CALM      29.95R
SALEM*         CLEAR     74  70  87 CALM      29.96R
METROPOLIS*    CLEAR     74  73  96 CALM      29.96R
$$

ILZ067-068-072-073-078-083-087-091-040300-
SOUTHEAST ILLINOIS

CITY           SKY/WX    TMP DP  RH WIND       PRES   REMARKS
LAWRENCEVILLE  PTCLDY    76  70  82 CALM      29.95R
FLORA*         CLEAR     74  68  82 CALM      29.97R
FAIRFIELD*     CLEAR     75  69  82 CALM      29.94R
HARRISBURG*    CLEAR     75  70  83 CALM      29.96R
ROBINSON*      CLEAR     73  70  91 CALM      29.96R
CARMI*         CLEAR     74  72  93 CALM      29.95R
$$

ABBREVIATIONS USED IN REMARKS
   TC - TEMPERATURE IN CELSIUS
  WCI - WIND CHILL INDEX
   HX - HEAT INDEX
  VSB - VISIBILITY
$$



USA.gov is the U.S. government's official web portal to all federal, state and local government web resources and services.